TimeCST,TemperatureF,Dew PointF,Humidity,Sea Level PressureIn,VisibilityMPH,Wind Direction,Wind SpeedMPH,Gust SpeedMPH,PrecipitationIn,Events,Conditions,WindDirDegrees,DateUTC
12:06 AM,10.9,3.9,73,30.19,6.0,SSE,4.6,-,0.00,Snow,Light Snow,160,2014-02-08 06:06:00
12:53 AM,10.0,5.0,80,30.26,6.0,South,3.5,-,0.00,Snow,Light Snow,170,2014-02-08 06:53:00
1:33 AM,10.0,5.0,80,30.17,6.0,SE,3.5,-,0.00,Snow,Light Snow,130,2014-02-08 07:33:00
1:53 AM,10.0,5.0,80,30.24,7.0,SE,3.5,-,0.00,Snow,Light Snow,130,2014-02-08 07:53:00
2:53 AM,10.0,3.9,76,30.22,8.0,SSE,6.9,-,0.00,Snow,Light Snow,160,2014-02-08 08:53:00
3:53 AM,10.0,6.1,84,30.21,10.0,SSE,5.8,-,0.00,,Overcast,150,2014-02-08 09:53:00
4:53 AM,10.9,6.1,81,30.19,10.0,South,5.8,-,N/A,,Overcast,170,2014-02-08 10:53:00
5:53 AM,10.9,7.0,84,30.19,10.0,South,6.9,-,N/A,,Overcast,170,2014-02-08 11:53:00
6:53 AM,12.0,7.0,80,30.19,8.0,South,8.1,-,0.00,Snow,Light Snow,170,2014-02-08 12:53:00
7:04 AM,12.0,7.0,80,30.09,6.0,SSE,9.2,-,0.00,Snow,Light Snow,160,2014-02-08 13:04:00
7:44 AM,12.0,8.1,84,30.07,2.0,SSE,8.1,-,0.00,Snow,Light Snow,160,2014-02-08 13:44:00
7:53 AM,12.0,8.1,84,30.14,4.0,SSE,8.1,-,0.00,Snow,Light Snow,160,2014-02-08 13:53:00
8:17 AM,12.0,8.1,84,30.11,2.0,SSW,9.2,-,0.00,Snow,Light Snow,200,2014-02-08 14:17:00
8:31 AM,12.9,9.0,84,30.10,4.0,South,6.9,-,0.00,Snow,Light Snow,180,2014-02-08 14:31:00
8:53 AM,12.9,9.0,84,30.16,4.0,South,4.6,-,0.00,Snow,Light Snow,180,2014-02-08 14:53:00
9:24 AM,14.0,9.0,80,30.11,9.0,South,6.9,-,0.00,,Overcast,190,2014-02-08 15:24:00
9:53 AM,15.1,10.0,80,30.17,10.0,South,5.8,-,0.00,,Overcast,170,2014-02-08 15:53:00
10:21 AM,16.0,10.9,81,30.08,8.0,South,10.4,-,N/A,,Overcast,180,2014-02-08 16:21:00
10:46 AM,16.0,10.9,81,30.08,10.0,South,9.2,-,N/A,,Overcast,180,2014-02-08 16:46:00
10:53 AM,17.1,12.0,81,30.15,10.0,South,8.1,-,N/A,,Overcast,180,2014-02-08 16:53:00
11:53 AM,19.0,14.0,81,30.14,10.0,SSW,9.2,-,N/A,,Overcast,210,2014-02-08 17:53:00
12:53 PM,19.9,14.0,78,30.11,9.0,SSW,9.2,-,N/A,,Overcast,210,2014-02-08 18:53:00
1:53 PM,21.0,16.0,81,30.11,7.0,WSW,13.8,-,N/A,,Overcast,250,2014-02-08 19:53:00
2:53 PM,21.9,16.0,78,30.09,7.0,West,9.2,-,N/A,,Overcast,270,2014-02-08 20:53:00
3:53 PM,21.9,16.0,78,30.12,8.0,West,8.1,-,N/A,,Overcast,280,2014-02-08 21:53:00
4:53 PM,21.9,16.0,78,30.13,8.0,WNW,8.1,-,N/A,,Overcast,300,2014-02-08 22:53:00
5:53 PM,21.0,16.0,81,30.14,8.0,NW,3.5,-,N/A,,Overcast,310,2014-02-08 23:53:00
6:20 PM,21.0,16.0,81,30.09,8.0,WNW,3.5,-,N/A,,Overcast,290,2014-02-09 00:20:00
6:53 PM,21.0,16.0,81,30.17,8.0,NW,4.6,-,N/A,,Overcast,320,2014-02-09 00:53:00
7:53 PM,21.0,16.0,81,30.17,7.0,Calm,Calm,-,N/A,,Overcast,0,2014-02-09 01:53:00
8:53 PM,21.0,16.0,81,30.17,7.0,North,4.6,-,N/A,,Overcast,360,2014-02-09 02:53:00
9:53 PM,19.9,16.0,85,30.18,6.0,North,6.9,-,N/A,,Overcast,10,2014-02-09 03:53:00
10:03 PM,19.9,16.0,85,30.12,6.0,NNE,5.8,-,N/A,,Overcast,20,2014-02-09 04:03:00
10:53 PM,19.9,15.1,81,30.18,5.0,North,4.6,-,N/A,,Haze,10,2014-02-09 04:53:00
11:11 PM,19.9,16.0,85,30.13,2.5,North,3.5,-,0.00,Snow,Light Snow,360,2014-02-09 05:11:00
11:19 PM,19.9,16.0,85,30.13,4.0,North,4.6,-,0.00,Snow,Light Snow,350,2014-02-09 05:19:00
11:53 PM,19.0,16.0,88,30.21,5.0,North,5.8,-,0.00,,Overcast,350,2014-02-09 05:53:00